User: anonymous   Login
Location: Twentynine Palms Airport
(34.1316°N, 115.9458°W)
Time: 11:58:13
(UTC-08:00)
Language:

Oscar 19 - Orbit

View from above orbital plane
View from above orbital plane
View from above satellite
View from above satellite

Ground track
Ground track

The orbit data is extracted from the following two-line orbital elements,

1 20442U 90005G   18055.85797315 +.00000000 +00000-0 +16120-4 0  9994
2 20442 098.6008 355.1014 0012727 119.0348 241.2113 14.32887416467745
Epoch (UTC): 24 February 2018 20:35:28
Eccentricity: 0.0012727
inclination: 98.6008°
perigee height: 773 km
apogee height: 791 km
right ascension of ascending node: 355.1014°
argument of perigee: 119.0348°
revolutions per day: 14.32887416
mean anomaly at epoch: 241.2113°
orbit number at epoch: 46774

The dashed part of the orbit path shows where the satellite is in the earth's shadow,  

DLR